Location: Krasnoyarskiy Pitomnik
(51.1333°N, 71.6167°E)
Time: 15:46:08
(UTC+00:00)

Transit 4A - Pass Details

Date: 12 April 2024
Orbit: 871 x 971 km, 66.8° (Epoch: 19 May)

Event Time Altitude Azimuth Distance (km) Brightness Sun altitude
Rises 19:25:30 0° 316° (NW) 3,471 11.5 -29.7°
Reaches altitude 10° 19:28:21 10° 304° (NW) 2,528 10.5 -29.7°
Enters shadow 19:31:17 22° 278° (W) 1,798 9.4 -29.7°
